Volver al catálogo

FREGAT R/B

ActivoMEO
NORAD 41106·ROCKET BODY·🇷🇺 Russia

Lanzado Dec 11, 2015 desde Baikonur Cosmodrome

Loading…

Próximos Pases (próximas 24 horas)

TLE

ActualizadoSource: Space-Track

Época: Sep 13, 2026, 22:48 UTC

1 41106U 15074B   26256.95013464 -.00000332  00000-0  00000-0 0  9991
2 41106   8.3279  60.7734 0197931   1.4915 358.6839  1.02895507 40429

Sigue FREGAT R/B en tiempo real con AllMySat

Download on the App Store